Waarnemingen

Advertentie
Mijn weer
Dax, Frankrijk (7603): temperatuur & dauwpunt: 15.01.2017 11:00:00 - 21.01.2017 11:00:00 (CET)Dax, Frankrijk (7603): temperatuur 5cm: 15.01.2017 11:00:00 - 21.01.2017 11:00:00 (CET)Dax, Frankrijk (7603): temperatuur -20cm & temperatuur -100cm: 15.01.2017 11:00:00 - 21.01.2017 11:00:00 (CET)Dax, Frankrijk (7603): windsnelheid & windstoten: 15.01.2017 11:00:00 - 21.01.2017 11:00:00 (CET)Dax, Frankrijk (7603): windrichting: 15.01.2017 11:00:00 - 21.01.2017 11:00:00 (CET)Dax, Frankrijk (7603): luchtdruk: 15.01.2017 11:00:00 - 21.01.2017 11:00:00 (CET)Dax, Frankrijk (7603): zicht: 15.01.2017 11:00:00 - 21.01.2017 11:00:00 (CET)Dax, Frankrijk (7603): Zonneschijnduur: 15.01.2017 11:00:00 - 21.01.2017 11:00:00 (CET)Dax, Frankrijk (7603): neerslag: 15.01.2017 11:00:00 - 21.01.2017 11:00:00 (CET)
Datum & Tijd tt [°C] td [°C] tt 5cm [°C] tt -20cm [°C] tt -100cm [°C] ff [km/u] ff [kn] fx [km/u] fx [kn] dd ppp [hPa] vv [km] sd [min] rr [mm]
21.01.2017 11:00:00 0,1 -1,0 -1,3 4,9 9,7 4 2 10 6 NO 1023,0 3,7 60 0,0
21.01.2017 10:00:00 -1,9 -2,0 -3,5 5,0 9,7 3 2 9 5 O 1023,0 1,5 26 0,0
21.01.2017 09:00:00 -3,4 -3,8 -4,6 5,0 9,8 4 2 9 5 O 1022,7 0,1 0 0,0
21.01.2017 08:00:00 -3,1 -3,5 -4,9 5,1 9,8 4 2 11 6 O 1022,5 3,0 0 0,0
21.01.2017 07:00:00 -4,3 -5,1 -5,6 5,1 9,8 3 2 9 5 OZO 1022,5 3,2 0 0,0
21.01.2017 06:00:00 -3,5 -4,0 -5,0 5,2 9,8 0 0 8 4 N 1022,4 2,9 0 0,0
21.01.2017 05:00:00 -3,7 -4,4 -5,1 5,2 9,8 3 1 5 3 ZO 1022,9 2,9 0 0,0
21.01.2017 04:00:00 -3,4 -4,2 -4,6 5,3 9,8 0 0 6 3 N 1023,3 2,6 0 0,0
21.01.2017 03:00:00 -2,7 -3,2 -4,0 5,4 9,8 3 1 6 4 NNW 1023,3 2,4 0 0,0
21.01.2017 02:00:00 -2,3 -3,1 -4,0 5,4 9,8 3 2 6 4 ZO 1023,4 2,6 0 0,0
21.01.2017 01:00:00 -2,3 -3,3 -4,1 5,5 9,9 3 1 7 4 O 1023,6 2,5 0 0,0
21.01.2017 00:00:00 -1,7 -2,5 -3,0 5,5 9,9 0 0 3 2 N 1023,9 2,5 0 0,0
20.01.2017 23:00:00 -1,5 -2,2 -2,9 5,5 9,9 0 0 5 3 N 1023,9 2,9 0 0,0
20.01.2017 22:00:00 -0,9 -2,3 -2,5 5,6 9,9 4 2 9 5 ZO 1024,1 2,9 0 0,0
20.01.2017 21:00:00 0,4 -1,5 -1,4 5,6 9,9 2 1 7 4 O 1024,0 3,1 0 0,0
20.01.2017 20:00:00 0,8 -1,3 -0,1 5,6 9,9 0 0 4 2 N 1024,2 4,1 0 0,0
20.01.2017 19:00:00 2,4 -0,5 1,0 5,5 9,9 0 0 2 1 N 1023,9 5 0 0,0
20.01.2017 18:00:00 4,5 -0,5 2,9 5,4 9,9 0 0 6 3 N 1023,7 8 5 0,0
20.01.2017 17:00:00 5,7 -0,2 7,1 5,3 10,0 3 2 13 7 N 1023,4 8 56 0,0
20.01.2017 16:00:00 5,9 -1,1 7,7 5,2 9,9 9 5 20 11 O 1023,5 10 60 0,0
20.01.2017 15:00:00 5,3 -1,4 6,2 5,1 9,9 10 5 20 11 OZO 1023,7 9 60 0,0
20.01.2017 14:00:00 3,9 -2,5 5,4 5,1 10,0 10 5 19 10 OZO 1024,2 8 60 0,0
20.01.2017 13:00:00 2,4 -2,1 5,4 5,1 10,0 6 4 12 7 NO 1025,1 8 60 0,0
20.01.2017 12:00:00 0,9 -3,2 0,1 5,2 10,0 3 2 7 4 NNO 1026,0 6 60 0,0
20.01.2017 11:00:00 -2,4 -4,1 -3,1 5,2 10,0 3 2 14 8 OZO 1026,7 5 9 0,0
20.01.2017 10:00:00 -3,6 -5,5 -4,4 5,3 10,0 7 4 16 8 NO 1026,3 3,0 5 0,0
20.01.2017 09:00:00 -4,3 -5,7 -4,9 5,3 10,0 6 3 13 7 ONO 1026,0 3,0 0 0,0
20.01.2017 08:00:00 -4,4 -5,4 -5,9 5,4 10,1 5 3 9 5 ONO 1026,1 3,0 0 0,0
20.01.2017 07:00:00 -4,5 -5,6 -5,3 5,5 10,1 2 1 9 5 O 1025,8 1,8 0 0,0
20.01.2017 06:00:00 -4,4 -5,4 -5,3 5,5 10,1 4 2 10 5 O 1026,0 4,3 0 0,0
20.01.2017 05:00:00 -3,6 -5,0 -4,7 5,6 10,1 8 4 12 7 NO 1026,1 6 0 0,0
20.01.2017 04:00:00 -3,4 -4,7 -4,6 5,6 10,1 6 3 13 7 ONO 1026,6 6 0 0,0
20.01.2017 03:00:00 -2,9 -4,6 -3,4 5,7 10,1 9 5 15 8 NO 1026,9 - 0 0,0
20.01.2017 02:00:00 -2,7 -4,4 -3,6 5,7 10,1 7 4 13 7 NO 1026,8 - 0 0,0
20.01.2017 01:00:00 -2,5 -4,4 -4,3 5,8 10,1 7 4 11 6 ONO 1026,9 8 0 0,0
20.01.2017 00:00:00 -2,3 -4,5 -3,3 5,8 10,1 7 4 15 8 ONO 1027,4 - 0 0,0
19.01.2017 23:00:00 -1,4 -3,9 -1,9 5,8 10,1 10 5 14 7 NO 1027,6 - 0 0,0
19.01.2017 22:00:00 -1,0 -3,8 -1,7 5,9 10,1 7 4 14 8 NO 1027,8 - 0 0,0
19.01.2017 21:00:00 -0,3 -3,7 -0,9 5,9 10,2 9 5 17 9 NO 1027,7 17 0 0,0
19.01.2017 20:00:00 0,7 -4,0 -0,4 5,9 10,2 8 4 14 8 NO 1027,4 - 0 0,0
19.01.2017 19:00:00 1,4 -4,3 0,1 5,9 10,2 4 2 9 5 NNO 1027,3 - 0 0,0
19.01.2017 18:00:00 2,3 -4,5 1,4 5,8 10,2 6 3 11 6 NO 1027,0 - 33 0,0
19.01.2017 17:00:00 3,0 -4,5 4,3 5,7 10,2 7 4 16 8 ONO 1026,7 15 60 0,0
19.01.2017 16:00:00 3,7 -4,0 5,9 5,7 10,2 6 3 12 6 O 1026,6 15 60 0,0
19.01.2017 15:00:00 3,3 -4,4 3,8 5,6 10,2 4 2 15 8 O 1026,6 15 17 0,0
19.01.2017 14:00:00 2,2 -5,0 3,2 5,6 10,2 8 4 16 8 ZO 1026,8 15 11 0,0
19.01.2017 13:00:00 1,7 -5,5 1,8 5,7 10,3 9 5 16 9 O 1027,3 10 39 0,0
19.01.2017 12:00:00 0,7 -4,7 0,6 5,7 10,3 10 5 14 8 OZO 1028,1 10 23 0,0
19.01.2017 11:00:00 -0,6 -4,7 -2,1 5,8 10,3 8 4 11 6 OZO 1028,2 8 42 0,0
19.01.2017 10:00:00 -2,2 -5,5 -4,7 5,9 10,3 3 1 4 2 ZZO 1027,7 4,5 60 0,0
19.01.2017 09:00:00 -5,5 -6,7 -6,3 5,9 10,3 0 0 2 1 N 1027,4 4,0 4 0,0
19.01.2017 08:00:00 -5,2 -7,0 -5,8 6,0 10,3 0 0 2 1 N 1027,2 5 0 0,0
19.01.2017 07:00:00 -4,2 -7,0 -5,6 6,0 10,3 0 0 6 4 N 1027,4 10 0 0,0
19.01.2017 06:00:00 -3,5 -5,8 -4,1 6,1 10,3 2 1 10 5 N 1027,3 9 0 0,0
19.01.2017 05:00:00 -3,0 -6,3 -3,7 6,2 10,3 4 2 8 4 NNO 1027,8 12 0 0,0
19.01.2017 04:00:00 -2,8 -6,3 -3,8 6,2 10,3 0 0 4 2 N 1027,8 13 0 0,0
19.01.2017 03:00:00 -2,2 -6,2 -2,7 6,2 10,4 3 1 11 6 OZO 1028,2 13 0 0,0
19.01.2017 02:00:00 -1,8 -6,6 -2,6 6,3 10,4 8 4 12 6 NO 1028,1 16 0 0,0
19.01.2017 01:00:00 -1,2 -6,6 -1,8 6,4 10,4 8 4 14 8 NO 1028,2 14 0 0,0
19.01.2017 00:00:00 -1,3 -6,3 -2,7 6,4 10,4 6 4 11 6 NO 1028,5 16 0 0,0
18.01.2017 23:00:00 -1,3 -6,5 -3,2 6,4 10,4 6 4 9 5 ONO 1028,2 15 0 0,0
18.01.2017 22:00:00 -1,3 -6,5 -3,0 6,5 10,4 7 4 12 6 O 1028,3 17 0 0,0
18.01.2017 21:00:00 -0,4 -6,2 -1,0 6,5 10,4 7 4 12 7 ONO 1028,5 14 0 0,0
18.01.2017 20:00:00 -0,3 -6,1 -0,7 6,5 10,4 7 4 12 7 ONO 1028,5 17 0 0,0
18.01.2017 19:00:00 -0,4 -5,8 -0,8 6,5 10,4 8 4 13 7 ONO 1028,2 18 0 0,0
18.01.2017 18:00:00 -0,2 -6,4 -0,3 6,5 10,4 11 6 17 9 NO 1027,6 20 0 0,0
18.01.2017 17:00:00 -0,1 -6,5 0,0 6,5 10,4 9 5 15 8 NO 1027,7 10 0 0,0
18.01.2017 16:00:00 0,2 -6,4 0,6 6,4 10,4 6 3 12 6 ONO 1027,3 10 0 0,0
18.01.2017 15:00:00 0,2 -7,1 0,9 6,4 10,4 4 2 11 6 NNO 1027,1 10 16 0,0
18.01.2017 14:00:00 1,6 -6,5 3,4 6,5 10,4 3 1 15 8 ZW 1026,8 10 60 0,0
18.01.2017 13:00:00 -0,1 -5,5 0,0 6,5 10,4 8 5 14 8 Z 1027,5 10 37 0,0
18.01.2017 12:00:00 -1,6 -5,8 -0,9 6,6 10,4 8 4 17 9 O 1028,4 10 52 0,0
18.01.2017 11:00:00 -2,4 -5,7 -2,0 6,7 10,4 10 5 16 9 O 1028,8 10 60 0,0
18.01.2017 10:00:00 -3,9 -6,5 -4,7 6,8 10,4 2 1 4 2 NNW 1028,7 8 60 0,0
18.01.2017 09:00:00 -5,2 -6,7 -5,9 6,9 10,4 0 0 4 2 N 1028,2 8 3 0,0
18.01.2017 08:00:00 -4,9 -6,7 -5,9 7,0 10,4 0 0 6 4 N 1027,8 10 0 0,0
18.01.2017 07:00:00 -4,1 -6,6 -5,3 7,1 10,4 3 2 6 4 NNW 1027,6 10 0 0,0
18.01.2017 06:00:00 -4,7 -6,2 -5,5 7,2 10,4 2 1 6 4 NW 1027,7 9 0 0,0
18.01.2017 05:00:00 -3,8 -6,0 -4,7 7,3 10,5 5 3 8 5 NNW 1027,8 10 0 0,0
18.01.2017 04:00:00 -3,1 -5,9 -4,1 7,4 10,4 4 2 13 7 N 1028,0 11 0 0,0
18.01.2017 03:00:00 -2,4 -5,5 -3,9 7,5 10,4 6 4 14 8 NNO 1028,0 13 0 0,0
18.01.2017 02:00:00 -2,4 -5,5 -3,5 7,6 10,5 5 3 10 5 N 1028,1 13 0 0,0
18.01.2017 01:00:00 -1,8 -5,8 -3,2 7,7 10,4 2 1 9 5 NO 1028,4 16 0 0,0
18.01.2017 00:00:00 -1,0 -5,8 -2,0 7,8 10,4 4 2 18 10 N 1028,5 15 0 0,0
17.01.2017 23:00:00 -0,5 -5,9 -2,3 7,9 10,5 5 3 15 8 NO 1028,9 19 0 0,0
17.01.2017 22:00:00 0,1 -6,1 -1,8 8,0 10,5 5 3 20 11 NNO 1028,7 21 0 0,0
17.01.2017 21:00:00 0,9 -6,0 -0,6 8,0 10,5 8 4 16 8 NO 1028,7 21 0 0,0
17.01.2017 20:00:00 1,3 -6,1 0,4 8,1 10,4 8 4 24 13 NO 1028,6 26 0 0,0
17.01.2017 19:00:00 2,3 -6,1 1,4 8,1 10,4 12 6 24 13 N 1027,8 26 0 0,0
17.01.2017 18:00:00 3,6 -6,4 2,9 8,1 10,5 14 8 33 18 N 1027,7 29 30 0,0
17.01.2017 17:00:00 5,2 -5,8 6,0 8,1 10,4 15 8 36 19 N 1027,5 29 60 0,0
17.01.2017 16:00:00 5,5 -6,4 8,3 8,0 10,4 17 9 32 17 N 1027,4 15 60 0,0
17.01.2017 15:00:00 5,1 -4,8 8,4 8,0 10,4 11 6 23 13 N 1027,6 10 60 0,0
17.01.2017 14:00:00 4,1 -3,4 7,4 8,0 10,4 11 6 22 12 N 1028,4 15 60 0,0
17.01.2017 13:00:00 3,5 -3,1 6,7 8,1 10,4 4 2 12 7 N 1029,0 15 60 0,0
17.01.2017 12:00:00 2,2 -2,5 1,2 8,1 10,4 6 3 15 8 NNO 1029,8 15 56 0,0
17.01.2017 11:00:00 0,3 -2,4 0,3 8,2 10,4 9 5 18 10 NNO 1029,9 16 51 0,0
17.01.2017 10:00:00 -0,1 -2,2 0,5 8,4 10,4 8 5 17 9 NNO 1029,4 15 60 0,0
17.01.2017 09:00:00 -0,8 -2,1 -2,0 8,5 10,4 5 3 13 7 NNO 1028,8 50 2 0,0
17.01.2017 08:00:00 -0,8 -2,2 -1,8 8,6 10,4 6 4 13 7 NNO 1028,4 15 0 0,0
17.01.2017 07:00:00 -0,1 -2,0 -1,1 8,6 10,4 8 4 15 8 NO 1027,9 10 0 0,0
17.01.2017 06:00:00 0,1 -2,0 -0,9 8,7 10,4 4 2 14 7 N 1027,5 10 0 0,0
17.01.2017 05:00:00 1,0 -1,4 0,5 8,8 10,4 8 5 18 10 NNO 1027,4 34 0 0,0
17.01.2017 04:00:00 2,1 -0,7 1,3 8,9 10,4 5 3 17 9 - 1027,1 5 0 0,0
17.01.2017 03:00:00 3,4 0,4 2,7 8,9 10,4 9 5 23 12 NO 1027,0 15 0 0,0
17.01.2017 02:00:00 4,7 1,2 4,3 8,9 10,4 10 5 26 14 ONO 1026,4 26 0 0,0
17.01.2017 01:00:00 5,5 1,4 5,2 9,0 10,5 11 6 24 13 NO 1026,2 20 0 0,0
17.01.2017 00:00:00 6,0 3,0 5,8 9,0 10,5 12 7 19 11 NO 1026,1 23 0 0,0
16.01.2017 23:00:00 6,2 3,2 5,9 9,0 10,4 7 4 21 11 NO 1025,5 20 0 0,0
16.01.2017 22:00:00 6,8 3,8 6,3 9,0 10,5 14 8 23 12 NO 1025,5 27 0 0,0
16.01.2017 21:00:00 7,9 5,4 7,1 9,0 10,4 7 4 23 12 NNO 1025,2 25 0 0,0
16.01.2017 20:00:00 9,0 6,3 8,6 9,0 10,5 8 5 22 12 NNO 1024,9 14 0 0,0
16.01.2017 19:00:00 9,3 6,9 9,0 9,0 10,5 8 4 14 8 NNW 1024,6 14 0 0,0
16.01.2017 18:00:00 9,8 7,0 9,5 8,9 10,5 8 4 16 9 NNW 1024,4 15 0 0,0
16.01.2017 17:00:00 10,3 7,4 10,3 8,8 10,5 10 5 24 13 NW 1024,4 15 0 0,0
16.01.2017 16:00:00 10,8 7,1 10,9 8,8 10,5 11 6 22 12 NW 1024,4 15 0 0,0
16.01.2017 15:00:00 11,3 7,8 11,7 8,7 10,5 16 9 25 14 NNW 1024,4 26 2 0,0
16.01.2017 14:00:00 11,1 8,7 11,0 8,6 10,5 10 5 23 12 NW 1024,6 12 0 0,0
16.01.2017 13:00:00 10,7 9,0 10,5 8,6 10,5 9 5 19 11 NW 1025,3 9 0 0,0
16.01.2017 12:00:00 10,3 8,7 9,8 8,5 10,5 9 5 18 10 NW 1025,6 9 0 0,0
16.01.2017 11:00:00 9,8 8,7 9,5 8,5 10,5 8 4 15 8 NW 1025,7 9 0 0,0
16.01.2017 10:00:00 9,5 8,6 8,9 8,5 10,5 5 3 15 8 NW 1025,4 8 0 0,0
16.01.2017 09:00:00 9,3 8,7 8,8 8,5 10,5 5 3 22 12 NW 1025,1 6 0 0,0
16.01.2017 08:00:00 9,6 8,5 8,8 8,4 10,5 11 6 27 14 NNW 1024,3 4,0 0 0,0
16.01.2017 07:00:00 9,5 8,9 9,0 8,4 10,5 11 6 22 12 NNW 1024,1 - 0 1,2
16.01.2017 06:00:00 9,5 8,7 9,0 8,4 10,5 9 5 29 15 NNW 1023,7 - 0 0,2
16.01.2017 05:00:00 9,7 8,8 9,1 8,3 10,5 10 5 32 17 NNW 1023,9 - 0 0,2
16.01.2017 04:00:00 9,9 8,8 9,2 8,3 10,5 19 10 40 22 NNW 1024,1 - 0 1,6
16.01.2017 03:00:00 9,9 9,1 9,1 8,3 10,5 16 9 43 23 NW 1024,3 - 0 1,2
16.01.2017 02:00:00 9,7 8,9 8,7 8,3 10,5 14 8 29 16 NW 1024,4 - 0 1,2
16.01.2017 01:00:00 9,0 8,7 7,8 8,2 10,5 11 6 25 14 NW 1025,1 - 0 0,4
16.01.2017 00:00:00 7,9 7,8 7,2 8,3 10,5 4 2 8 4 W 1025,7 - 0 0,8
15.01.2017 23:00:00 7,3 7,2 6,5 8,3 10,5 4 2 13 7 WNW 1026,5 - 0 1,4
15.01.2017 22:00:00 6,7 6,6 6,4 8,3 10,5 3 1 12 6 Z 1027,0 - 0 1,6
15.01.2017 21:00:00 6,5 6,4 6,3 8,3 10,5 7 4 14 8 Z 1027,3 - 0 1,0
15.01.2017 20:00:00 6,5 6,2 6,3 8,3 10,5 4 2 11 6 Z 1027,9 - 0 1,1
15.01.2017 19:00:00 6,6 6,3 6,3 8,3 10,5 4 2 10 5 ZZW 1028,2 - 0 1,0
15.01.2017 18:00:00 6,7 6,3 6,4 8,2 10,6 8 5 12 7 ZZW 1028,1 - 0 0,8
15.01.2017 17:00:00 7,0 6,4 6,7 8,2 10,6 9 5 14 8 ZZW 1028,2 - 0 0,6
15.01.2017 16:00:00 6,9 6,2 6,7 8,2 10,6 0 0 16 9 N 1028,7 - 0 0,6
15.01.2017 15:00:00 6,8 6,2 6,6 8,1 10,5 10 5 16 9 WZW 1028,5 - 0 2,0
15.01.2017 14:00:00 7,0 6,1 6,7 8,1 10,6 5 3 12 7 W 1028,9 - 0 0,6
15.01.2017 13:00:00 6,9 5,7 6,8 8,0 10,5 7 4 9 5 Z 1029,2 - 0 0,0
15.01.2017 12:00:00 6,8 4,9 6,3 8,0 10,6 3 2 5 3 ONO 1029,9 - 0 0,0
15.01.2017 11:00:00 6,1 5,1 5,8 8,0 10,6 0 0 3 2 N 1030,0 - 0 0,0

tt = temperatuur
td = dauwpunt
tt 5cm = temperatuur 5cm
tt -20cm = temperatuur -20cm
tt -100cm = temperatuur -100cm
ff = windsnelheid
fx = windstoten
dd = windrichting
ppp = luchtdruk
vv = zicht
sd = Zonneschijnduur
rr = neerslag

Weerstations in de omgeving